EW9280 Weather Reports


time (UTC)temp
C
wind
direction
speed
KPH
gust
KPH
rain 1hr
cm
rain 24hr
cm
rain mn
cm
humidity
%
barometer
mb
20260507214600 11 169 0.0 1.6 0.00 0.00 0.00 88 1008.3
20260507213057 11 171 0.0 1.6 0.00 0.00 0.00 87 1008.8
20260507211554 12 171 0.0 1.6 0.00 0.00 0.00 85 1008.8
20260507210114 12 171 0.0 1.6 0.00 0.00 0.00 84 1008.6
20260507204556 12 171 0.0 0.0 0.00 0.00 0.00 83 1008.0
20260507203051 13 171 0.0 0.0 0.00 0.00 0.00 82 1008.4
20260507201545 13 171 0.0 0.0 0.00 0.00 0.00 84 1008.0
20260507200100 13 171 1.6 3.2 0.00 0.00 0.00 84 1008.0
20260507194544 13 171 0.0 0.0 0.00 0.00 0.00 83 1008.3
20260507193106 13 171 0.0 0.0 0.00 0.00 0.00 79 1008.6
20260507191552 13 171 0.0 0.0 0.00 0.00 0.00 75 1008.2
20260507190042 14 171 0.0 0.0 0.00 0.00 0.00 70 1008.3
20260507184541 14 171 0.0 1.6 0.00 0.00 0.00 71 1008.5
20260507183044 14 171 0.0 3.2 0.00 0.00 0.00 72 1008.4
20260507181541 13 171 0.0 1.6 0.00 0.00 0.00 71 1008.5
20260507180040 13 171 0.0 0.0 0.00 0.00 0.00 74 1009.1
20260507174539 14 171 0.0 0.0 0.00 0.00 0.00 72 1009.3
20260507173041 14 171 0.0 3.2 0.00 0.00 0.00 70 1009.8
20260507171538 14 166 0.0 4.8 0.00 0.00 0.00 69 1009.5
20260507170037 14 161 1.6 3.2 0.00 0.03 0.00 71 1009.8
20260507164537 14 184 0.0 3.2 0.00 0.03 0.00 69 1009.8
20260507163038 14 184 0.0 0.0 0.00 0.03 0.00 69 1009.8
20260507161534 14 184 0.0 1.6 0.00 0.03 0.00 70 1009.8
20260507160056 14 183 0.0 3.2 0.00 0.03 0.00 70 1009.9
20260507154535 14 183 0.0 3.2 0.00 0.03 0.00 69 1010.1
20260507153034 14 183 0.0 3.2 0.00 0.03 0.00 70 1010.2
20260507151532 14 296 0.0 4.8 0.00 0.03 0.00 68 1010.7
20260507150031 14 230 0.0 3.2 0.00 0.03 0.00 69 1010.6
20260507144542 14 318 0.0 3.2 0.00 0.03 0.00 70 1010.5
20260507143032 14 325 0.0 4.8 0.00 0.03 0.00 70 1010.5
20260507141529 14 351 0.0 3.2 0.00 0.03 0.00 68 1010.6
20260507140029 14 201 0.0 8.0 0.00 0.03 0.00 70 1010.5
20260507134524 13 163 0.0 3.2 0.00 0.03 0.00 74 1010.4
20260507133024 13 264 0.0 3.2 0.00 0.03 0.00 72 1010.3
20260507131528 13 227 0.0 8.0 0.00 0.03 0.00 74 1010.3
20260507130030 13 12 0.0 3.2 0.00 0.03 0.00 75 1010.0
20260507124520 13 11 0.0 3.2 0.00 0.03 0.00 78 1010.3
20260507123027 13 5 0.0 4.8 0.00 0.03 0.00 77 1010.3
20260507121518 13 219 0.0 1.6 0.00 0.03 0.00 78 1010.2
20260507120015 13 219 0.0 4.8 0.00 0.03 0.00 83 1010.3
20260507114512 14 67 0.0 4.8 0.00 0.03 0.00 84 1010.2
20260507113010 14 28 0.0 3.2 0.00 0.03 0.00 83 1009.9
20260507111510 14 265 0.0 4.8 0.00 0.03 0.00 84 1010.0
20260507110006 15 348 0.0 4.8 0.00 0.03 0.00 86 1009.6
20260507104507 15 93 0.0 4.8 0.00 0.03 0.00 86 1009.1
20260507103006 15 148 0.0 4.8 0.00 0.03 0.00 87 1009.4
20260507101508 15 194 0.0 3.2 0.00 0.03 0.00 86 1009.3
20260507100002 15 5 0.0 4.8 0.00 0.03 0.00 85 1009.1
20260507094559 15 46 0.0 4.8 0.00 0.03 0.00 84 1009.2
20260507093102 15 304 1.6 4.8 0.00 0.03 0.00 84 1009.0
20260507091558 15 35 0.0 6.4 0.00 0.03 0.00 85 1008.8
20260507084554 15 350 0.0 4.8 0.00 0.03 0.00 88 1008.4
20260507083049 16 5 0.0 6.4 0.00 0.03 0.00 88 1008.5
20260507081547 16 74 0.0 11.3 0.00 0.03 0.00 87 1008.4
20260507080046 16 57 0.0 4.8 0.00 0.03 0.00 86 1008.3
20260507074545 17 163 0.0 3.2 0.00 0.03 0.00 86 1008.0
20260507073039 17 164 0.0 4.8 0.00 0.03 0.00 86 1007.5
20260507071534 18 164 0.0 3.2 0.00 0.03 0.00 88 1007.1
20260507070033 18 155 0.0 0.0 0.00 0.03 0.00 87 1006.8
20260507064530 19 155 0.0 0.0 0.00 0.03 0.00 86 1006.7
20260507063031 20 155 0.0 1.6 0.00 0.03 0.00 85 1006.8
20260507061527 20 155 0.0 0.0 0.00 0.03 0.00 84 1006.7
20260507060027 20 155 0.0 0.0 0.00 0.03 0.00 83 1007.2
20260507054521 20 155 0.0 6.4 0.00 0.03 0.00 83 1007.1
20260507053020 20 120 4.8 11.3 0.00 0.03 0.00 84 1007.2
20260507051519 20 121 4.8 12.9 0.00 0.03 0.00 83 1007.2
20260507050016 20 133 6.4 16.1 0.00 0.03 0.00 83 1007.4
20260507044513 20 134 4.8 14.5 0.00 0.03 0.00 82 1007.5
20260507043013 20 132 9.7 17.7 0.00 0.03 0.00 82 1007.4
20260507041531 20 113 8.0 16.1 0.00 0.03 0.00 82 1007.4
20260507040011 20 125 6.4 12.9 0.00 0.03 0.03 82 1007.4
20260507034512 20 130 8.0 20.9 0.00 0.03 0.03 82 1007.2
20260507033011 20 124 9.7 17.7 0.00 0.03 0.03 82 1007.3
20260507031507 20 140 8.0 16.1 0.00 0.03 0.03 82 1007.2
20260507030006 20 125 9.7 12.9 0.00 0.03 0.03 82 1007.2
20260507024506 20 134 4.8 17.7 0.00 0.03 0.03 81 1007.4
20260507023005 20 134 4.8 12.9 0.00 0.03 0.03 81 1007.5
20260507021505 20 143 6.4 14.5 0.00 0.03 0.03 81 1007.7
20260507020005 20 132 11.3 16.1 0.00 0.03 0.03 81 1007.5
20260507014514 20 134 9.7 17.7 0.00 0.03 0.03 81 1007.3
20260507013015 20 133 8.0 14.5 0.00 0.03 0.03 81 1007.5
20260507011504 20 134 8.0 14.5 0.00 0.03 0.03 81 1007.8
20260507010002 20 140 6.4 12.9 0.00 0.03 0.03 80 1007.7
20260507004600 20 126 6.4 11.3 0.00 0.03 0.03 80 1007.8
20260507003059 21 126 6.4 12.9 0.00 0.03 0.03 78 1007.6
20260507001620 21 122 8.0 12.9 0.00 0.03 0.03 78 1007.4
20260507000101 21 132 8.0 14.5 0.00 0.03 0.03 75 1007.5
20260506234557 21 132 6.4 14.5 0.00 0.03 0.03 75 1007.3
20260506233107 22 136 8.0 14.5 0.00 0.03 0.03 73 1007.6
20260506231556 22 124 6.4 17.7 0.00 0.03 0.03 72 1007.4
20260506230157 22 135 8.0 16.1 0.00 0.03 0.03 72 1007.5
20260506224555 22 140 9.7 20.9 0.00 0.03 0.03 72 1007.3
20260506223108 22 138 11.3 19.3 0.00 0.03 0.03 73 1007.3
20260506221559 22 165 8.0 17.7 0.00 0.03 0.03 74 1007.6
20260506220051 22 120 4.8 16.1 0.00 0.03 0.03 74 1007.5